TimeEDT,TemperatureF,Dew PointF,Humidity,Sea Level PressureIn,VisibilityMPH,Wind Direction,Wind SpeedMPH,Gust SpeedMPH,PrecipitationIn,Events,Conditions,WindDirDegrees,DateUTC
12:15 AM,46.4,33.8,62,29.70,10.0,WNW,8.1,11.5,N/A,,Overcast,300,2012-10-29 04:15:00
12:35 AM,46.4,32.0,57,29.70,10.0,NW,9.2,-,N/A,,Overcast,320,2012-10-29 04:35:00
12:55 AM,46.4,32.0,57,29.70,10.0,NNW,9.2,-,N/A,,Overcast,330,2012-10-29 04:55:00
1:15 AM,46.4,32.0,57,29.70,10.0,NW,8.1,17.3,N/A,,Overcast,310,2012-10-29 05:15:00
1:35 AM,46.4,32.0,57,29.69,10.0,NW,10.4,-,N/A,,Overcast,310,2012-10-29 05:35:00
1:55 AM,46.4,32.0,57,29.69,10.0,NW,9.2,19.6,N/A,,Overcast,310,2012-10-29 05:55:00
2:15 AM,44.6,32.0,61,29.69,10.0,NW,12.7,19.6,N/A,,Overcast,320,2012-10-29 06:15:00
2:35 AM,44.6,32.0,61,29.69,10.0,NW,15.0,23.0,N/A,,Overcast,320,2012-10-29 06:35:00
2:55 AM,44.6,32.0,61,29.68,10.0,NW,13.8,20.7,N/A,,Overcast,320,2012-10-29 06:55:00
3:15 AM,44.6,32.0,61,29.68,10.0,NNW,15.0,21.9,N/A,,Overcast,330,2012-10-29 07:15:00
3:35 AM,44.6,32.0,61,29.67,10.0,NW,15.0,25.3,N/A,,Overcast,320,2012-10-29 07:35:00
3:55 AM,44.6,30.2,57,29.66,10.0,NNW,15.0,25.3,N/A,,Overcast,330,2012-10-29 07:55:00
4:15 AM,44.6,30.2,57,29.66,10.0,NW,15.0,21.9,N/A,,Overcast,320,2012-10-29 08:15:00
4:35 AM,44.6,30.2,57,29.66,10.0,NNW,13.8,24.2,N/A,,Overcast,330,2012-10-29 08:35:00
5:15 AM,44.6,30.2,57,29.66,10.0,NW,9.2,19.6,N/A,,Overcast,320,2012-10-29 09:15:00
5:35 AM,44.6,30.2,57,29.66,10.0,NW,10.4,18.4,N/A,,Overcast,310,2012-10-29 09:35:00
5:55 AM,44.6,30.2,57,29.66,10.0,NW,15.0,24.2,N/A,,Overcast,310,2012-10-29 09:55:00
6:15 AM,44.6,30.2,57,29.66,10.0,NW,11.5,20.7,N/A,,Mostly Cloudy,310,2012-10-29 10:15:00
6:35 AM,44.6,30.2,57,29.66,10.0,NW,12.7,23.0,N/A,,Scattered Clouds,320,2012-10-29 10:35:00
6:55 AM,44.6,30.2,57,29.66,10.0,NW,17.3,21.9,N/A,,Mostly Cloudy,310,2012-10-29 10:55:00
7:15 AM,44.6,30.2,57,29.66,10.0,NW,13.8,19.6,N/A,,Overcast,320,2012-10-29 11:15:00
7:35 AM,44.6,30.2,57,29.66,10.0,NW,18.4,33.4,N/A,,Overcast,320,2012-10-29 11:35:00
8:15 AM,44.6,30.2,57,29.65,10.0,NW,16.1,25.3,N/A,,Mostly Cloudy,320,2012-10-29 12:15:00
9:35 AM,46.4,30.2,53,29.65,10.0,NW,12.7,24.2,N/A,,Overcast,320,2012-10-29 13:35:00
9:55 AM,44.6,30.2,57,29.65,10.0,NW,13.8,29.9,N/A,,Overcast,320,2012-10-29 13:55:00
10:15 AM,46.4,30.2,53,29.63,10.0,NNW,18.4,24.2,N/A,,Overcast,330,2012-10-29 14:15:00
10:35 AM,46.4,30.2,53,29.64,10.0,NW,19.6,28.8,N/A,,Overcast,320,2012-10-29 14:35:00
10:55 AM,46.4,30.2,53,29.63,10.0,NW,19.6,26.5,N/A,,Overcast,310,2012-10-29 14:55:00
11:15 AM,46.4,30.2,53,29.63,10.0,WNW,11.5,28.8,N/A,,Overcast,300,2012-10-29 15:15:00
11:35 AM,46.4,30.2,53,29.62,10.0,NW,15.0,24.2,N/A,,Overcast,310,2012-10-29 15:35:00
11:55 AM,46.4,32.0,57,29.62,10.0,NW,8.1,17.3,N/A,,Overcast,320,2012-10-29 15:55:00
12:15 PM,48.2,30.2,50,29.62,10.0,NW,9.2,28.8,N/A,,Mostly Cloudy,310,2012-10-29 16:15:00
12:35 PM,48.2,32.0,54,29.62,10.0,WNW,10.4,16.1,N/A,,Scattered Clouds,290,2012-10-29 16:35:00
12:55 PM,48.2,32.0,54,29.61,10.0,WNW,12.7,19.6,N/A,Rain,Light Rain,300,2012-10-29 16:55:00
1:15 PM,50.0,32.0,50,29.60,10.0,WNW,11.5,20.7,N/A,,Clear,290,2012-10-29 17:15:00
1:35 PM,48.2,32.0,54,29.60,10.0,NW,11.5,23.0,N/A,Rain,Light Rain,310,2012-10-29 17:35:00
1:55 PM,50.0,32.0,50,29.59,10.0,WNW,12.7,19.6,N/A,,Clear,290,2012-10-29 17:55:00
2:15 PM,48.2,32.0,54,29.59,10.0,West,13.8,18.4,N/A,,Clear,280,2012-10-29 18:15:00
2:55 PM,46.4,32.0,57,29.58,10.0,WNW,17.3,25.3,N/A,,Clear,300,2012-10-29 18:55:00
3:15 PM,46.4,30.2,53,29.58,10.0,WNW,12.7,23.0,N/A,,Light Drizzle,300,2012-10-29 19:15:00
3:35 PM,46.4,32.0,57,29.57,10.0,WNW,12.7,21.9,N/A,Rain,Light Rain,300,2012-10-29 19:35:00
3:55 PM,46.4,32.0,57,29.56,10.0,West,16.1,21.9,N/A,Rain,Light Rain,280,2012-10-29 19:55:00
4:15 PM,46.4,32.0,57,29.56,10.0,WNW,12.7,21.9,N/A,,Clear,290,2012-10-29 20:15:00
4:35 PM,44.6,32.0,61,29.55,10.0,West,13.8,25.3,N/A,,Light Drizzle,280,2012-10-29 20:35:00
4:55 PM,46.4,32.0,57,29.55,10.0,West,12.7,21.9,N/A,,Scattered Clouds,280,2012-10-29 20:55:00
5:15 PM,46.4,30.2,53,29.54,10.0,WNW,15.0,24.2,N/A,,Scattered Clouds,290,2012-10-29 21:15:00
5:35 PM,44.6,30.2,57,29.54,10.0,WNW,16.1,27.6,N/A,,Mostly Cloudy,290,2012-10-29 21:35:00
5:55 PM,44.6,30.2,57,29.53,10.0,West,17.3,25.3,N/A,,Scattered Clouds,280,2012-10-29 21:55:00
6:15 PM,44.6,30.2,57,29.53,10.0,WNW,18.4,24.2,N/A,,Clear,290,2012-10-29 22:15:00
6:35 PM,44.6,30.2,57,29.53,10.0,West,17.3,27.6,N/A,,Scattered Clouds,280,2012-10-29 22:35:00
6:55 PM,44.6,30.2,57,29.52,10.0,West,19.6,27.6,N/A,,Mostly Cloudy,270,2012-10-29 22:55:00
7:15 PM,44.6,30.2,57,29.52,10.0,WNW,15.0,27.6,N/A,,Overcast,290,2012-10-29 23:15:00
7:35 PM,44.6,30.2,57,29.52,10.0,WNW,17.3,25.3,N/A,,Overcast,290,2012-10-29 23:35:00
7:55 PM,44.6,30.2,57,29.52,10.0,West,15.0,26.5,N/A,,Mostly Cloudy,280,2012-10-29 23:55:00
8:15 PM,44.6,30.2,57,29.51,10.0,West,15.0,27.6,N/A,,Mostly Cloudy,280,2012-10-30 00:15:00
8:35 PM,44.6,30.2,57,29.50,10.0,West,11.5,24.2,N/A,,Overcast,280,2012-10-30 00:35:00
11:55 PM,42.8,28.4,57,29.47,10.0,West,17.3,33.4,N/A,,Overcast,270,2012-10-30 03:55:00